[[{"header":{"parameterUnit":"m.s-1","parameterCategory":1,"la1":30.2991,"la2":30.254,"lo1":-89.0895,"lo2":-89.0444,"dy":0.0017,"dx":0.0017,"nx":28,"ny":28,"refTime":"2025-07-17T03:00:00:Z","depth":0,"parameterNumber":2,"parameterNumberName":"U-component_of_WINDS"},"data":[0,0,0,0,0,0,0,0,0,0,0,0,0,0,0,0,0,0,0,0,0,0,0,0,0,0,0,0,0,0,0,0,0,0,0,0,0,0,0,0,0,0,0,0,0,0,0,0,0,0,0,0,0,0,0,0,0,0,-1.1946,-1.1949,0,-1.2263,-1.2267,-1.227,-1.2379,-1.2378,-1.2377,-1.2375,-1.2711,-1.2721,-1.2731,0,0,0,0,0,0,0,0,0,0,0,0,0,-1.1444,-1.1452,-1.1945,-1.1949,-1.1953,-1.2262,-1.2267,-1.2271,-1.2379,-1.2378,-1.2376,-1.2375,-1.2707,-1.2719,-1.2731,0,0,0,0,0,0,0,0,0,0,0,0,0,-1.1701,-1.1455,-1.1945,-1.2044,-1.2056,-1.2261,-1.2267,-1.2272,-1.238,-1.2378,-1.2376,-1.2374,-1.2703,-1.2718,-1.2733,-1.2865,0,0,-1.278,-1.2786,0,0,0,0,0,0,0,0,-1.1687,-1.172,-1.2026,-1.2038,-1.2052,-1.2279,-1.2213,-1.2471,-1.238,-1.2257,-1.2375,-1.2373,-1.2569,-1.2595,-1.266,-1.2881,-1.2895,-1.2781,-1.279,-1.2797,-1.2801,0,0,0,0,0,0,0,-1.1669,-1.1707,-1.2071,-1.203,-1.2046,-1.2077,-1.2111,-1.2262,-1.2421,-1.2268,-1.2277,-1.2312,-1.2576,-1.2645,-1.2668,-1.29,-1.278,-1.2794,-1.2803,-1.2809,-1.3248,-1.3251,0,0,0,0,0,0,-1.1633,-1.1691,-1.2061,-1.2081,-1.186,-1.2087,-1.2126,-1.2208,-1.2419,-1.2449,-1.2313,-1.2316,-1.262,-1.265,-1.268,-1.2851,-1.2796,-1.2811,-1.2819,-1.3246,-1.3249,-1.3252,0,0,0,0,0,0,-1.1621,-1.1664,-1.2049,-1.1889,-1.194,-1.2098,-1.219,-1.2216,-1.2284,-1.2453,-1.2483,-1.2353,-1.2619,-1.2659,-1.2818,-1.2864,-1.2818,-1.2831,-1.3243,-1.3247,-1.325,-1.319,0,0,0,0,0,0,-1.1606,-1.166,-1.1709,-1.1889,-1.1948,-1.2178,-1.2193,-1.2223,-1.2309,-1.2315,-1.2499,-1.2528,-1.2621,-1.2795,-1.2833,-1.2884,-1.2843,-1.324,-1.3245,-1.3249,-1.3189,-1.3191,-1.3194,0,0,0,0,0,-1.1588,-1.1681,-1.1711,-1.1755,-1.2012,-1.218,-1.2214,-1.2316,-1.2312,-1.2365,-1.2474,-1.2522,-1.2852,-1.281,-1.2854,-1.291,-1.3237,-1.3243,-1.3249,-1.3188,-1.3191,-1.3194,0,0,0,0,0,0,-1.1507,-1.1707,-1.1742,-1.1895,-1.2019,-1.2198,-1.2267,-1.2316,-1.2447,-1.2448,-1.2573,-1.2613,-1.2763,-1.2853,-1.2803,-1.305,-1.3048,-1.3062,-1.2986,-1.2991,-1.2993,-1.2969,-1.2856,0,0,0,0,0,-1.1506,-1.1622,-1.1792,-1.1911,-1.1971,-1.2108,-1.2185,-1.2253,-1.2388,-1.2442,-1.2563,-1.2695,-1.2829,-1.2915,-1.3047,-1.3202,-1.3245,-1.3262,-1.3264,-1.3265,-1.3278,-1.3368,-1.3379,-1.3271,-1.3271,-1.3271,0,0,-1.1507,-1.1631,-1.1697,-1.1898,-1.2002,-1.2123,-1.2152,-1.2278,-1.2371,-1.2463,-1.262,-1.2713,-1.2869,-1.3026,-1.3102,-1.3106,-1.3317,-1.3273,-1.3272,-1.3285,-1.3375,-1.3385,-1.3394,-1.3275,-1.3274,-1.3273,0,0,-1.1571,-1.1675,-1.1786,-1.1889,-1.2045,-1.2135,-1.2162,-1.2333,-1.2398,-1.2556,-1.2628,-1.2741,-1.2968,-1.3077,-1.3162,-1.3266,-1.3316,-1.3306,-1.3319,-1.3406,-1.3415,-1.3423,-1.3462,-1.3475,-1.3317,-1.3317,-1.3317,0,-1.1553,-1.1735,-1.1838,-1.196,-1.2048,-1.2133,-1.2249,-1.2345,-1.2537,-1.2598,-1.2598,-1.2885,-1.2996,-1.3181,-1.3206,-1.3271,-1.3308,-1.3286,-1.3404,-1.3414,-1.3423,-1.3462,-1.3476,-1.3315,-1.3315,-1.3315,-1.3315,0,-1.1707,-1.1832,-1.1903,-1.2083,-1.2179,-1.2297,-1.2421,-1.2506,-1.2566,-1.2657,-1.2819,-1.2955,-1.3117,-1.3165,-1.3226,-1.336,-1.3358,-1.3379,-1.338,-1.3429,-1.3468,-1.3484,-1.3312,-1.3312,-1.3313,-1.3314,0,0,-1.173,-1.1964,-1.1988,-1.2072,-1.225,-1.2351,-1.2474,-1.2629,-1.27,-1.283,-1.2939,-1.3129,-1.315,-1.3246,-1.332,-1.3396,-1.3472,-1.341,-1.3415,-1.3418,-1.3631,-1.3614,-1.363,-1.3506,-1.3509,-1.3512,-1.3619,0,-1.1818,-1.2038,-1.2134,-1.2313,-1.2431,-1.2513,-1.2622,-1.2744,-1.2833,-1.2949,-1.3049,-1.3182,-1.3199,-1.3258,-1.3336,-1.3446,-1.3517,-1.344,-1.3612,-1.3617,-1.3571,-1.365,-1.3633,-1.3727,-1.3634,-1.3637,-1.3639,0,-1.1951,-1.2077,-1.2266,-1.243,-1.2484,-1.2578,-1.2729,-1.2837,-1.2979,-1.3039,-1.3145,-1.3215,-1.3352,-1.3341,-1.3533,-1.3478,-1.3554,-1.3619,-1.3625,-1.3647,-1.3632,-1.3675,-1.3759,-1.3774,-1.3663,-1.3662,-1.366,0,-1.195,-1.2168,-1.231,-1.2378,-1.2573,-1.2638,-1.2723,-1.2863,-1.295,-1.3083,-1.3141,-1.3289,-1.337,-1.3484,-1.3594,-1.3575,-1.3776,-1.3774,-1.3832,-1.3829,-1.3872,-1.3868,-1.3971,-1.3918,-1.3917,-1.3917,-1.3917,0,-1.204,-1.2152,-1.2312,-1.2399,-1.2529,-1.264,-1.2766,-1.2858,-1.2981,-1.3091,-1.3172,-1.3273,-1.341,-1.353,-1.3617,-1.3764,-1.38,-1.3854,-1.3876,-1.3848,-1.3841,-1.3901,-1.3898,-1.3921,-1.392,-1.3919,-1.3919,0,-1.2062,-1.2173,-1.2333,-1.2503,-1.2549,-1.2637,-1.2785,-1.2874,-1.2966,-1.3103,-1.3142,-1.3288,-1.3433,-1.3552,-1.3744,-1.3802,-1.3956,-1.3981,-1.3907,-1.3919,-1.397,-1.3964,-1.4117,-1.4144,-1.407,-1.407,-1.4071,0,-1.2112,-1.22,-1.2379,-1.2456,-1.2539,-1.2662,-1.2751,-1.2864,-1.2954,-1.3122,-1.3192,-1.3342,-1.3468,-1.3697,-1.3823,-1.397,-1.4,-1.4044,-1.4023,-1.3992,-1.4003,-1.3997,-1.4008,-1.4046,-1.4046,-1.4046,-1.4046,0,-1.2191,-1.2241,-1.2363,-1.2505,-1.2607,-1.2726,-1.2847,-1.2906,-1.3042,-1.3139,-1.3286,-1.3384,-1.3578,-1.3727,-1.3888,-1.398,-1.4037,-1.4051,-1.4073,-1.4046,-1.4,-1.4027,-1.3913,-1.4048,-1.4048,-1.4048,-1.4047,-1.4047,-1.2231,-1.2313,-1.2451,-1.2585,-1.2687,-1.2798,-1.289,-1.2992,-1.3116,-1.328,-1.334,-1.3492,-1.3635,-1.3855,-1.3948,-1.4071,-1.4077,-1.4108,-1.4116,-1.4123,-1.4119,-1.3978,-1.41,-1.4101,-1.4101,-1.4101,-1.4101,0,-1.2314,-1.2407,-1.2529,-1.2693,-1.2799,-1.2839,-1.2975,-1.3063,-1.3194,-1.332,-1.3441,-1.3612,-1.3757,-1.3893,-1.4045,-1.4118,-1.4148,-1.4155,-1.4151,-1.4172,-1.4104,-1.4071,-1.4127,-1.4127,-1.4127,-1.4127,-1.4127,-1.4127,-1.2371,-1.2512,-1.2579,-1.2773,-1.2867,-1.3013,-1.3087,-1.3191,-1.3292,-1.3477,-1.3597,-1.3683,-1.3814,-1.3977,-1.4113,-1.415,-1.4203,-1.4203,-1.4247,-1.4181,-1.4177,-1.4173,-1.4142,-1.4213,-1.4213,-1.4305,-1.4306,-1.4306]},{"header":{"parameterUnit":"m.s-1","parameterCategory":1,"la1":30.2991,"la2":30.254,"lo1":-89.0895,"lo2":-89.0444,"dy":0.0017,"dx":0.0017,"nx":28,"ny":28,"refTime":"2025-07-17T03:00:00:Z","depth":0,"parameterNumber":3,"parameterNumberName":"V-component_of_WINDS"},"data":[0,0,0,0,0,0,0,0,0,0,0,0,0,0,0,0,0,0,0,0,0,0,0,0,0,0,0,0,0,0,0,0,0,0,0,0,0,0,0,0,0,0,0,0,0,0,0,0,0,0,0,0,0,0,0,0,0,0,-2.9597,-2.9596,0,-2.9548,-2.9548,-2.9547,-2.9448,-2.9446,-2.9444,-2.9442,-2.9394,-2.9395,-2.9396,0,0,0,0,0,0,0,0,0,0,0,0,0,-2.9603,-2.9603,-2.9597,-2.9596,-2.9595,-2.9548,-2.9548,-2.9547,-2.9449,-2.9446,-2.9444,-2.9441,-2.9394,-2.9395,-2.9396,0,0,0,0,0,0,0,0,0,0,0,0,0,-2.9582,-2.9604,-2.9597,-2.954,-2.9535,-2.9549,-2.9548,-2.9547,-2.9449,-2.9446,-2.9443,-2.944,-2.9394,-2.9395,-2.9396,-2.9461,0,0,-2.9398,-2.9399,0,0,0,0,0,0,0,0,-2.9584,-2.9582,-2.9549,-2.9544,-2.9538,-2.9501,-2.9532,-2.9518,-2.945,-2.9482,-2.9442,-2.9439,-2.9432,-2.943,-2.9427,-2.9458,-2.9456,-2.9398,-2.9399,-2.9399,-2.9399,0,0,0,0,0,0,0,-2.9585,-2.9584,-2.9577,-2.9549,-2.9542,-2.9518,-2.9511,-2.9529,-2.9474,-2.9479,-2.9471,-2.9467,-2.9429,-2.9427,-2.9426,-2.9455,-2.9398,-2.9399,-2.94,-2.94,-2.9535,-2.9538,0,0,0,0,0,0,-2.9595,-2.9586,-2.9579,-2.9576,-2.9554,-2.952,-2.9513,-2.9516,-2.9474,-2.9465,-2.947,-2.9463,-2.9427,-2.9425,-2.9424,-2.9496,-2.9399,-2.94,-2.9401,-2.9532,-2.9536,-2.9539,0,0,0,0,0,0,-2.9595,-2.9595,-2.9581,-2.9579,-2.9575,-2.9523,-2.9527,-2.9517,-2.9515,-2.9467,-2.9457,-2.9478,-2.9424,-2.9422,-2.9452,-2.9493,-2.94,-2.9401,-2.9529,-2.9534,-2.9538,-2.9642,0,0,0,0,0,0,-2.9596,-2.9596,-2.962,-2.958,-2.9576,-2.961,-2.953,-2.9518,-2.9516,-2.9507,-2.9472,-2.9463,-2.9422,-2.9451,-2.9453,-2.9493,-2.9402,-2.9525,-2.9531,-2.9536,-2.9635,-2.965,-2.9663,0,0,0,0,0,-2.9596,-2.9652,-2.9622,-2.9622,-2.9605,-2.9613,-2.961,-2.9561,-2.952,-2.9544,-2.9513,-2.9464,-2.9488,-2.9455,-2.9456,-2.9497,-2.9522,-2.9529,-2.9536,-2.9629,-2.9647,-2.9662,0,0,0,0,0,0,-2.9699,-2.9646,-2.9612,-2.9656,-2.964,-2.9596,-2.9625,-2.9582,-2.9578,-2.9569,-2.9508,-2.9501,-2.9539,-2.952,-2.9484,-2.9556,-2.9497,-2.9505,-2.9567,-2.9584,-2.9598,-2.9602,-2.9403,0,0,0,0,0,-2.9727,-2.9738,-2.969,-2.9734,-2.9727,-2.9678,-2.968,-2.9643,-2.9624,-2.9617,-2.9588,-2.9571,-2.9574,-2.9578,-2.9579,-2.9631,-2.9622,-2.966,-2.9674,-2.9685,-2.9693,-2.9718,-2.9734,-2.9562,-2.9562,-2.9562,0,0,-2.9785,-2.9757,-2.9767,-2.9754,-2.9737,-2.975,-2.9673,-2.969,-2.9698,-2.9619,-2.9645,-2.9623,-2.96,-2.9642,-2.9658,-2.9627,-2.9738,-2.9694,-2.9704,-2.9705,-2.9727,-2.9744,-2.9758,-2.9567,-2.9566,-2.9565,0,0,-2.9896,-2.9876,-2.991,-2.9894,-2.9869,-2.9835,-2.9843,-2.9806,-2.9788,-2.9813,-2.9753,-2.9763,-2.977,-2.9756,-2.975,-2.9854,-2.9809,-2.9856,-2.9929,-2.9955,-2.9968,-2.998,-3.0017,-3.0031,-2.9863,-2.9864,-2.9864,0,-2.9971,-2.9988,-2.9933,-2.9953,-2.9949,-2.9876,-2.991,-2.9897,-2.9874,-2.9873,-2.9838,-2.9845,-2.9825,-2.9861,-2.9886,-2.9884,-2.9891,-2.986,-2.9971,-2.9982,-2.9992,-3.0027,-3.0041,-2.987,-2.9869,-2.9868,-2.9868,0,-3.0081,-3.0093,-3.0124,-3.0102,-3.0101,-3.0128,-3.0077,-3.0082,-3.0045,-3.0015,-3.0041,-3.0013,-3.0007,-3.0012,-2.9977,-3.0044,-3.0025,-2.9982,-2.9921,-3.0015,-3.0047,-3.006,-2.9878,-2.9876,-2.9874,-2.9873,0,0,-3.0258,-3.0204,-3.0216,-3.0205,-3.0171,-3.018,-3.0203,-3.0196,-3.0201,-3.0187,-3.0205,-3.0212,-3.0171,-3.0164,-3.0126,-3.0149,-3.0233,-3.0102,-3.01,-3.0127,-3.0304,-3.0338,-3.0354,-3.0202,-3.0204,-3.0206,-3.0306,0,-3.0362,-3.0399,-3.0349,-3.0397,-3.0407,-3.0338,-3.0358,-3.0339,-3.0311,-3.0316,-3.0284,-3.029,-3.0236,-3.0231,-3.025,-3.0219,-3.0267,-3.021,-3.0218,-3.0219,-3.0227,-3.037,-3.0406,-3.0502,-3.0318,-3.032,-3.0321,0,-3.0489,-3.048,-3.0529,-3.0491,-3.0493,-3.0512,-3.0501,-3.0506,-3.0483,-3.0461,-3.0453,-3.0407,-3.0426,-3.0367,-3.0393,-3.0355,-3.0355,-3.034,-3.0342,-3.0342,-3.0277,-3.0374,-3.0531,-3.0546,-3.034,-3.0339,-3.0337,0,-3.0614,-3.0614,-3.0642,-3.0635,-3.0591,-3.0606,-3.0589,-3.0562,-3.0561,-3.0551,-3.0549,-3.0542,-3.0538,-3.0533,-3.0487,-3.0448,-3.0518,-3.0455,-3.0501,-3.0502,-3.052,-3.052,-3.068,-3.0519,-3.0519,-3.0518,-3.0518,0,-3.0736,-3.0768,-3.0697,-3.0716,-3.0749,-3.0692,-3.0727,-3.0702,-3.0679,-3.0691,-3.063,-3.0642,-3.0579,-3.0584,-3.0548,-3.0575,-3.0573,-3.0556,-3.0546,-3.0562,-3.0565,-3.0562,-3.0555,-3.0522,-3.0521,-3.0521,-3.052,0,-3.0881,-3.0835,-3.0862,-3.0817,-3.0807,-3.0834,-3.0796,-3.0811,-3.0778,-3.0793,-3.0793,-3.0743,-3.0745,-3.0698,-3.0691,-3.0666,-3.071,-3.0688,-3.0718,-3.0711,-3.076,-3.0757,-3.0925,-3.0944,-3.0771,-3.0773,-3.0774,0,-3.0963,-3.0986,-3.0944,-3.0947,-3.0932,-3.0938,-3.0936,-3.0879,-3.0879,-3.0854,-3.0872,-3.0869,-3.0865,-3.0872,-3.0835,-3.0829,-3.0807,-3.0866,-3.0806,-3.0821,-3.0808,-3.0808,-3.081,-3.0879,-3.0881,-3.0883,-3.0885,0,-3.1112,-3.1088,-3.1087,-3.1078,-3.1077,-3.1067,-3.1053,-3.1059,-3.0997,-3.1,-3.1002,-3.0998,-3.0991,-3.099,-3.0976,-3.0958,-3.0912,-3.0903,-3.0914,-3.0931,-3.0948,-3.094,-3.0754,-3.09,-3.0899,-3.0898,-3.0897,-3.0896,-3.1229,-3.1246,-3.1218,-3.1219,-3.1202,-3.119,-3.1201,-3.117,-3.117,-3.116,-3.1126,-3.1133,-3.1108,-3.1086,-3.1071,-3.1076,-3.1047,-3.1062,-3.1066,-3.1071,-3.108,-3.0946,-3.1073,-3.1073,-3.1072,-3.1072,-3.1072,0,-3.1375,-3.1354,-3.1355,-3.1337,-3.1337,-3.1292,-3.1274,-3.1277,-3.1285,-3.1265,-3.1261,-3.1262,-3.126,-3.1222,-3.1215,-3.1226,-3.1204,-3.1226,-3.1225,-3.1222,-3.1106,-3.1098,-3.1244,-3.1244,-3.1244,-3.1244,-3.1244,-3.1244,-3.1452,-3.1478,-3.1451,-3.1468,-3.1445,-3.1452,-3.1446,-3.1434,-3.1418,-3.1423,-3.142,-3.1395,-3.1367,-3.1357,-3.1353,-3.1342,-3.1342,-3.1372,-3.1353,-3.1247,-3.123,-3.1214,-3.1206,-3.1372,-3.1372,-3.1468,-3.1469,-3.147]}]]